[[{"header":{"parameterUnit":"m.s-1","parameterCategory":1,"la1":30.2991,"la2":30.254,"lo1":-89.0895,"lo2":-89.0444,"dy":0.0017,"dx":0.0017,"nx":28,"ny":28,"refTime":"2023-09-16T21:00:00:Z","depth":0,"parameterNumber":2,"parameterNumberName":"U-component_of_WINDS"},"data":[0,0,0,0,0,0,0,0,0,0,0,0,0,0,0,0,0,0,0,0,0,0,0,0,0,0,0,0,0,0,0,0,0,0,0,0,0,0,0,0,0,0,0,0,0,0,0,0,0,0,0,0,0,0,0,0,0,0,0.4211,0.4211,0,0.421,0.421,0.421,0.4172,0.4171,0.417,0.4169,0.417,0.4171,0.4172,0,0,0,0,0,0,0,0,0,0,0,0,0,0.4181,0.4182,0.4211,0.4211,0.4211,0.421,0.421,0.421,0.4172,0.4171,0.417,0.4168,0.417,0.4171,0.4172,0,0,0,0,0,0,0,0,0,0,0,0,0,0.4188,0.4182,0.4211,0.4192,0.419,0.421,0.421,0.421,0.4172,0.4171,0.4169,0.4168,0.417,0.4171,0.4173,0.4212,0,0,0.4177,0.4178,0,0,0,0,0,0,0,0,0.4188,0.419,0.4195,0.4193,0.4191,0.419,0.42,0.4211,0.4173,0.4179,0.4169,0.4167,0.4178,0.4179,0.4182,0.4212,0.4212,0.4177,0.4178,0.4179,0.4179,0,0,0,0,0,0,0,0.4188,0.4189,0.4211,0.4195,0.4193,0.4184,0.4183,0.4202,0.4187,0.4178,0.4176,0.4176,0.4177,0.4181,0.4182,0.4212,0.4177,0.4178,0.4179,0.418,0.4272,0.4274,0,0,0,0,0,0,0.4189,0.4189,0.4211,0.4211,0.4186,0.4185,0.4185,0.4192,0.4187,0.4185,0.4177,0.4174,0.4179,0.418,0.4182,0.4226,0.4179,0.418,0.4181,0.427,0.4272,0.4274,0,0,0,0,0,0,0.4189,0.4192,0.4211,0.4199,0.4201,0.4187,0.4196,0.4192,0.4196,0.4186,0.4183,0.4184,0.4178,0.418,0.4204,0.4225,0.4181,0.4182,0.4269,0.4271,0.4273,0.4315,0,0,0,0,0,0,0.4188,0.4192,0.4206,0.42,0.4202,0.4233,0.4197,0.4194,0.4198,0.4194,0.4191,0.4189,0.4177,0.4202,0.4205,0.4227,0.4183,0.4267,0.427,0.4272,0.4312,0.4319,0.4325,0,0,0,0,0,0.4187,0.4219,0.4207,0.421,0.422,0.4234,0.4235,0.422,0.42,0.4215,0.4208,0.4189,0.4223,0.4205,0.4208,0.423,0.4265,0.4269,0.4272,0.4309,0.4317,0.4325,0,0,0,0,0,0,0.423,0.4218,0.4205,0.4235,0.4236,0.4228,0.4246,0.4229,0.4236,0.4232,0.4213,0.4213,0.424,0.4238,0.4218,0.4267,0.4241,0.4245,0.4267,0.4275,0.4281,0.4281,0.4184,0,0,0,0,0,0.4243,0.4255,0.4244,0.4272,0.4273,0.4259,0.4265,0.4253,0.4253,0.4253,0.4248,0.425,0.426,0.4268,0.4277,0.4312,0.431,0.4328,0.4335,0.434,0.4344,0.436,0.4368,0.4286,0.4286,0.4286,0,0,0.427,0.4265,0.4274,0.4281,0.428,0.4293,0.426,0.4276,0.4285,0.4256,0.4278,0.4275,0.4275,0.4304,0.4317,0.4303,0.4366,0.4345,0.4349,0.435,0.4365,0.4373,0.438,0.4288,0.4288,0.4287,0,0,0.4325,0.4323,0.4345,0.4344,0.4343,0.4333,0.4338,0.4332,0.4328,0.435,0.4328,0.4339,0.4358,0.4359,0.4362,0.4416,0.4398,0.4419,0.4452,0.4469,0.4475,0.4481,0.4499,0.4506,0.4423,0.4423,0.4424,0,0.4359,0.4377,0.4359,0.4375,0.4379,0.4352,0.4374,0.4374,0.4376,0.4379,0.4364,0.4386,0.4384,0.4412,0.4425,0.4429,0.4434,0.4419,0.4476,0.4481,0.4486,0.4503,0.451,0.4426,0.4426,0.4425,0.4425,0,0.4418,0.4431,0.4449,0.445,0.4456,0.4475,0.446,0.4468,0.4455,0.4447,0.4469,0.4466,0.4473,0.4479,0.4467,0.4505,0.4496,0.4479,0.4452,0.4497,0.4512,0.4519,0.4429,0.4429,0.4428,0.4427,0,0,0.45,0.4489,0.4496,0.4496,0.4491,0.4501,0.452,0.4526,0.4532,0.4535,0.4549,0.4565,0.4548,0.4551,0.4539,0.4553,0.4595,0.4534,0.4533,0.4544,0.4635,0.4647,0.4655,0.4583,0.4585,0.4586,0.4634,0,0.4552,0.4581,0.4565,0.4596,0.4608,0.4582,0.4597,0.4596,0.4589,0.4598,0.4591,0.4602,0.4579,0.4581,0.4594,0.4587,0.4612,0.4583,0.4596,0.4597,0.4596,0.4663,0.4677,0.4723,0.464,0.4642,0.4642,0,0.4617,0.462,0.4652,0.4644,0.4648,0.4663,0.4666,0.4675,0.4674,0.4667,0.467,0.4654,0.4671,0.4645,0.4668,0.4648,0.4653,0.465,0.4651,0.4651,0.4622,0.4664,0.4738,0.4744,0.4652,0.4651,0.465,0,0.4671,0.4684,0.4705,0.4705,0.4697,0.4707,0.4705,0.4701,0.4706,0.4709,0.4711,0.4718,0.4721,0.4726,0.4712,0.4694,0.4736,0.4709,0.4731,0.4731,0.4741,0.474,0.4815,0.4745,0.4745,0.4745,0.4745,0,0.4731,0.4751,0.4729,0.4741,0.4763,0.4745,0.4767,0.4762,0.4759,0.477,0.4748,0.4759,0.4741,0.475,0.4739,0.4759,0.4761,0.4756,0.4753,0.4758,0.4758,0.476,0.4756,0.4747,0.4747,0.4746,0.4746,0,0.4795,0.4781,0.4801,0.4791,0.4789,0.4806,0.4797,0.4809,0.48,0.4814,0.4816,0.4803,0.4812,0.4799,0.4808,0.48,0.4827,0.482,0.4828,0.4825,0.4847,0.4845,0.4925,0.4934,0.486,0.4861,0.4861,0,0.4833,0.4848,0.4839,0.4844,0.4842,0.4852,0.4855,0.4837,0.4842,0.4841,0.4852,0.486,0.4864,0.4881,0.4872,0.4878,0.487,0.4898,0.4871,0.4875,0.4869,0.4868,0.4869,0.4903,0.4904,0.4905,0.4905,0,0.4901,0.4893,0.4899,0.4902,0.4907,0.4909,0.491,0.4916,0.4897,0.4903,0.4912,0.4916,0.4924,0.4931,0.4935,0.4932,0.4916,0.4914,0.4919,0.4923,0.4926,0.4924,0.4841,0.4912,0.4911,0.4911,0.491,0.491,0.4953,0.4964,0.4959,0.4966,0.4964,0.4965,0.4974,0.4966,0.4973,0.4977,0.4967,0.4978,0.4975,0.4978,0.4977,0.4986,0.4974,0.4982,0.4984,0.4986,0.4988,0.4926,0.4987,0.4987,0.4986,0.4986,0.4986,0,0.5018,0.5014,0.502,0.5021,0.5026,0.5009,0.5009,0.5014,0.5024,0.5023,0.5028,0.5037,0.5044,0.5036,0.5041,0.505,0.5042,0.5052,0.505,0.505,0.5,0.4994,0.5058,0.5058,0.5058,0.5058,0.5058,0.5057,0.5053,0.5071,0.5062,0.5079,0.5074,0.5084,0.5085,0.5086,0.5084,0.5096,0.5101,0.5095,0.509,0.5095,0.5101,0.5098,0.5101,0.5113,0.5107,0.506,0.5053,0.5047,0.5041,0.5114,0.5114,0.5156,0.5157,0.5157]},{"header":{"parameterUnit":"m.s-1","parameterCategory":1,"la1":30.2991,"la2":30.254,"lo1":-89.0895,"lo2":-89.0444,"dy":0.0017,"dx":0.0017,"nx":28,"ny":28,"refTime":"2023-09-16T21:00:00:Z","depth":0,"parameterNumber":3,"parameterNumberName":"V-component_of_WINDS"},"data":[0,0,0,0,0,0,0,0,0,0,0,0,0,0,0,0,0,0,0,0,0,0,0,0,0,0,0,0,0,0,0,0,0,0,0,0,0,0,0,0,0,0,0,0,0,0,0,0,0,0,0,0,0,0,0,0,0,0,4.1693,4.1693,0,4.1647,4.1646,4.1645,4.1587,4.1586,4.1585,4.1584,4.1534,4.1533,4.1533,0,0,0,0,0,0,0,0,0,0,0,0,0,4.1731,4.173,4.1693,4.1693,4.1692,4.1647,4.1646,4.1645,4.1587,4.1586,4.1584,4.1583,4.1534,4.1533,4.1533,0,0,0,0,0,0,0,0,0,0,0,0,0,4.1702,4.173,4.1693,4.1658,4.1654,4.1647,4.1646,4.1645,4.1587,4.1586,4.1584,4.1583,4.1534,4.1533,4.1533,4.1557,0,0,4.1531,4.153,0,0,0,0,0,0,0,0,4.1704,4.1701,4.1663,4.166,4.1656,4.1621,4.1641,4.1615,4.1587,4.1612,4.1584,4.1582,4.1564,4.1561,4.1555,4.1554,4.1552,4.153,4.153,4.153,4.153,0,0,0,0,0,0,0,4.1706,4.1703,4.1675,4.1663,4.1658,4.1643,4.1638,4.1636,4.1596,4.161,4.1606,4.1601,4.1561,4.1556,4.1553,4.1551,4.1531,4.153,4.1529,4.1529,4.1567,4.1569,0,0,0,0,0,0,4.1714,4.1705,4.1676,4.1673,4.1677,4.1644,4.1637,4.1634,4.1596,4.1589,4.1602,4.1598,4.1557,4.1554,4.1551,4.1576,4.153,4.1529,4.1529,4.1566,4.1568,4.1569,0,0,0,0,0,0,4.1715,4.1712,4.1678,4.1688,4.1682,4.1645,4.1641,4.1633,4.1627,4.159,4.1583,4.1604,4.1556,4.1552,4.1556,4.1573,4.1529,4.1528,4.1564,4.1567,4.1569,4.1626,0,0,0,0,0,0,4.1716,4.1712,4.1721,4.1688,4.1682,4.1684,4.1642,4.1633,4.1627,4.1621,4.159,4.1583,4.1555,4.1557,4.1555,4.1572,4.1528,4.1563,4.1565,4.1568,4.1622,4.163,4.1636,0,0,0,0,0,4.1717,4.1739,4.1722,4.1719,4.1693,4.1685,4.1681,4.1649,4.1628,4.1637,4.1613,4.1584,4.1572,4.1558,4.1555,4.1572,4.1561,4.1565,4.1568,4.1619,4.1628,4.1636,0,0,0,0,0,0,4.1774,4.1734,4.1715,4.1726,4.171,4.1675,4.1685,4.166,4.1648,4.1643,4.1603,4.1597,4.1605,4.1589,4.1574,4.1593,4.1562,4.1565,4.1603,4.1611,4.1618,4.1621,4.1527,0,0,0,0,0,4.1788,4.1785,4.1751,4.1764,4.1757,4.1723,4.1718,4.1695,4.1676,4.1668,4.1645,4.1627,4.1619,4.1614,4.1605,4.1621,4.1612,4.1631,4.1638,4.1644,4.1646,4.1652,4.166,4.158,4.158,4.158,0,0,4.1816,4.1794,4.1795,4.1775,4.1759,4.1757,4.1717,4.1717,4.1715,4.1668,4.1669,4.1652,4.1629,4.1639,4.1642,4.1626,4.1666,4.1648,4.1653,4.1652,4.1656,4.1664,4.1671,4.1582,4.1582,4.1581,0,0,4.1866,4.185,4.1859,4.1845,4.1822,4.1799,4.1802,4.1771,4.1758,4.176,4.1724,4.1721,4.1709,4.1694,4.1685,4.1731,4.1704,4.1729,4.1765,4.1772,4.1778,4.1783,4.1799,4.1805,4.1732,4.1732,4.1732,0,4.1903,4.19,4.1867,4.1869,4.1861,4.182,4.1828,4.1816,4.1791,4.1787,4.1769,4.1753,4.1735,4.174,4.1751,4.1746,4.1747,4.1732,4.178,4.1785,4.1789,4.1804,4.181,4.1735,4.1735,4.1735,4.1735,0,4.1947,4.1945,4.1955,4.1933,4.1926,4.1932,4.1899,4.1897,4.1875,4.1854,4.1856,4.1833,4.1818,4.1818,4.1796,4.182,4.1811,4.1788,4.1756,4.1801,4.1813,4.1819,4.174,4.1739,4.1738,4.1737,0,0,4.2029,4.199,4.1994,4.1983,4.1956,4.1953,4.1957,4.1944,4.1942,4.1927,4.1928,4.1919,4.1898,4.1888,4.1864,4.187,4.1907,4.1846,4.1845,4.1857,4.1931,4.1948,4.1955,4.189,4.1891,4.1891,4.1933,0,4.2072,4.2077,4.2048,4.206,4.2057,4.2019,4.2022,4.2006,4.1987,4.1981,4.196,4.1954,4.1927,4.192,4.1925,4.1902,4.1921,4.1899,4.1889,4.1889,4.1895,4.1962,4.1979,4.2019,4.1938,4.1939,4.1939,0,4.2123,4.2112,4.2124,4.2097,4.2094,4.2098,4.2083,4.2079,4.206,4.2045,4.2035,4.2008,4.2009,4.1981,4.1982,4.1967,4.1962,4.195,4.1951,4.1947,4.1916,4.1958,4.2031,4.2037,4.1947,4.1946,4.1946,0,4.2181,4.2168,4.2174,4.2166,4.2135,4.2138,4.2125,4.2104,4.2098,4.2086,4.2081,4.2069,4.2062,4.2052,4.2023,4.2005,4.2027,4.1996,4.2014,4.2014,4.2018,4.2018,4.2089,4.2018,4.2018,4.2018,4.2018,0,4.2231,4.224,4.2199,4.2202,4.221,4.2177,4.2186,4.217,4.2152,4.2151,4.2117,4.2117,4.2079,4.2074,4.2051,4.2054,4.2052,4.2039,4.2033,4.2041,4.2043,4.2036,4.2032,4.2019,4.2019,4.2019,4.2018,0,4.2295,4.2269,4.2272,4.2242,4.2235,4.2243,4.2217,4.2218,4.2198,4.2197,4.2195,4.2163,4.2155,4.2126,4.2111,4.2096,4.2106,4.2094,4.2113,4.2108,4.2127,4.2125,4.2195,4.2202,4.2128,4.2129,4.213,0,4.2329,4.2334,4.2306,4.2303,4.2292,4.2288,4.2282,4.225,4.2245,4.2224,4.2228,4.2218,4.2209,4.2199,4.2173,4.2162,4.2149,4.2174,4.2147,4.2155,4.2147,4.2147,4.2147,4.2179,4.218,4.2181,4.2182,0,4.239,4.2377,4.237,4.2359,4.2353,4.2342,4.2329,4.2329,4.2293,4.2289,4.2282,4.2275,4.226,4.2251,4.2236,4.2221,4.2195,4.2191,4.2194,4.2202,4.2212,4.2206,4.2127,4.2189,4.2188,4.2188,4.2188,4.2187,4.2438,4.2442,4.2422,4.2416,4.2403,4.2393,4.2393,4.2373,4.2367,4.2353,4.2335,4.233,4.231,4.2287,4.2275,4.227,4.2256,4.2261,4.2262,4.2263,4.2267,4.2215,4.2268,4.2267,4.2267,4.2267,4.2267,0,4.2497,4.2483,4.2478,4.2461,4.2456,4.2435,4.242,4.2416,4.2413,4.2397,4.2389,4.2381,4.2372,4.2347,4.2335,4.2336,4.2324,4.2333,4.2332,4.2329,4.2281,4.2279,4.2343,4.2343,4.2343,4.2343,4.2343,4.2343,4.2526,4.2531,4.2516,4.2513,4.2499,4.2495,4.2488,4.2478,4.2465,4.2458,4.2451,4.2435,4.2416,4.2402,4.2393,4.2386,4.2382,4.2396,4.2385,4.234,4.2332,4.2325,4.2323,4.2396,4.2396,4.2433,4.2433,4.2433]}]]